Terminal Aerodrome Forecast
Issued by NWS Riverton, WY

Home | Current Version | Previous Version | Text Only | Print | Product List | Glossary On
Versions: 1 2 3 4 5 6 7 8 9 10 11 12 13 14
000
FTUS45 KRIW 300500
TAFRIW
TAF
KRIW 300540Z 3006/3106 VRB06KT P6SM SCT120
     FM301000 19008KT P6SM SCT100 BKN200
     FM301600 23011G17KT P6SM VCSH SCT080 BKN120
     FM302000 25020G30KT P6SM VCTS SCT080CB BKN120
     FM310100 VRB10G18KT P6SM VCTS BKN080CB
     FM310500 33008KT P6SM VCSH SCT060 OVC090=

USA.gov is the U.S. government's official web portal to all federal, state and local government web resources and services.